ASTRA 2E

Last updated on Tue Dec 16 2025 00:02:49 GMT+0000 (Coordinated Universal Time)

1 39285U 13056A 25349.27814568 .00000171 00000+0 00000+0 0 9993 2 39285 0.0550 357.9344 0002193 262.4580 312.4184 1.00271699 44574
UTC large
Height (km)
Speed (km/s)
/
Latitude / Longitude
Inclination (degrees)
Orbital Period (minutes)
Azimuth
Elevation
Range (km)
Doppler Factor

Next 0 passes for location: London (51.5072 / 0.1276)

Sorry there are no passes over London.